Погода в Сокрутовке

Россия / Астраханская область     47°54′17″N   46°32′23″E
темп.,
°C
ветер,
м/с
пор.,
м/с
влажн.,
%
обл.,
%
осадки,
мм/ч
давл.,
гПа
погр.,
м
12 мая, ср
ср1201:00+12св7145498 0.0 1020280
04:00+10св511681 0.0 1019200
07:00+11св47750 0.0 1019241
10:00+16всв22570 0.0 1019674
13:00+20в22360 0.0 10191354
16:00+22всв33345 0.0 10181676
19:00+22св344413 0.0 1017472
22:00+20с4750100 0.0 1016162
13 мая, чт
чт1301:00+16ссв47670 0.0 1015132
04:00+16юв611780 0.0 1015246
07:00+16ююв367810 0.0 1015221
10:00+22ююв454654 0.0 1016809
13:00+26ююв56380 0.0 10161357
16:00+28ююв56365 0.0 10161344
19:00+28ю35420 0.0 1015168
22:00+22юв512490 0.0 1016276
14 мая, пт
пт1401:00+19юв411550 0.0 1017224
04:00+18юв47602 0.0 1017115
07:00+19юв37560 0.0 1018180
10:00+27юв710343 0.0 1018681
13:00+32юв9122097 0.0 10171606
16:00+32ююв91119100 0.0 10172042
19:00+28ююв713220 0.0 1017469
22:00+22юв514265 0.0 1018261
15 мая, сб
сб1501:00+20вюв512324 0.0 1018200
04:00+19вюв513331 0.0 1017207
07:00+20юв615402 0.0 1017316
10:00+29юв812240 0.0 1017995
13:00+32ююв910180 0.0 10172624
16:00+32ююв89180 0.0 10162959
19:00+29юв59250 0.0 1015289
22:00+23юв512322 0.0 1016200
16 мая, вс
вс1601:00+21юв48384 0.0 1016119
04:00+20вюв45400 0.0 101663
07:00+21в513430 0.0 1015326
10:00+29юв711270 0.0 1015878
13:00+33юв910192 0.0 10143258
16:00+32вюв910180 0.0 10133138
19:00+29вюв812200 0.0 1013583
22:00+23вюв513230 0.0 1013230